Time,TemperatureF,DewpointF,PressureIn,WindDirection,WindDirectionDegrees,WindSpeedMPH,WindSpeedGustMPH,Humidity,HourlyPrecipIn,Conditions,Clouds,dailyrainin,SoftwareType,DateUTC
2013-03-13 00:04:00,46.5,22.0,30.13,SSE,154,0.0,8.0,38,0.00,,,0.00,weatherlink.com 1.10,2013-03-13 06:04:00,
2013-03-13 00:09:00,46.2,22.0,30.13,SSE,154,1.0,3.0,38,0.00,,,0.00,Wunderground v.1.15,2013-03-13 06:09:00,
2013-03-13 00:14:00,45.8,22.8,30.13,SSE,154,2.0,2.0,40,0.00,,,0.00,Wunderground v.1.15,2013-03-13 06:14:00,
2013-03-13 00:21:00,45.6,22.6,30.13,SSE,153,1.0,2.0,40,0.00,,,0.00,Wunderground v.1.15,2013-03-13 06:21:00,
2013-03-13 00:26:00,45.3,23.0,30.13,SSE,153,1.0,2.0,41,0.00,,,0.00,Wunderground v.1.15,2013-03-13 06:26:00,
2013-03-13 00:32:00,45.1,22.8,30.13,SSE,152,2.0,2.0,41,0.00,,,0.00,Wunderground v.1.15,2013-03-13 06:32:00,
2013-03-13 00:37:00,44.9,22.6,30.13,SSE,153,3.0,3.0,41,0.00,,,0.00,Wunderground v.1.15,2013-03-13 06:37:00,
2013-03-13 00:43:00,44.5,22.0,30.13,SSE,151,3.0,4.0,41,0.00,,,0.00,weatherlink.com 1.10,2013-03-13 06:43:00,
2013-03-13 00:49:00,44.0,21.8,30.13,SSE,151,2.0,3.0,41,0.00,,,0.00,Wunderground v.1.15,2013-03-13 06:49:00,
2013-03-13 00:56:00,43.5,21.9,30.13,SSE,151,2.0,3.0,42,0.00,,,0.00,Wunderground v.1.15,2013-03-13 06:56:00,
2013-03-13 01:01:00,43.1,21.5,30.13,East,90,3.0,3.0,42,0.00,,,0.00,Wunderground v.1.15,2013-03-13 07:01:00,
2013-03-13 01:06:00,42.8,21.8,30.13,East,90,0.0,3.0,43,0.00,,,0.00,Wunderground v.1.15,2013-03-13 07:06:00,
2013-03-13 01:12:00,42.4,22.0,30.13,East,91,0.0,1.0,44,0.00,,,0.00,Wunderground v.1.15,2013-03-13 07:12:00,
2013-03-13 01:18:00,42.1,21.2,30.14,North,360,5.0,5.0,43,0.00,,,0.00,Wunderground v.1.15,2013-03-13 07:18:00,
2013-03-13 01:24:00,41.8,22.0,30.14,North,355,6.0,6.0,45,0.00,,,0.00,Wunderground v.1.15,2013-03-13 07:24:00,
2013-03-13 01:30:00,41.6,22.0,30.14,North,350,3.0,6.0,45,0.00,,,0.00,weatherlink.com 1.10,2013-03-13 07:30:00,
2013-03-13 01:36:00,41.9,22.1,30.14,North,360,6.0,6.0,45,0.00,,,0.00,Wunderground v.1.15,2013-03-13 07:36:00,
2013-03-13 01:41:00,42.2,21.8,30.14,North,351,4.0,4.0,44,0.00,,,0.00,Wunderground v.1.15,2013-03-13 07:41:00,
2013-03-13 01:46:00,42.4,22.0,30.14,North,355,6.0,8.0,44,0.00,,,0.00,Wunderground v.1.15,2013-03-13 07:46:00,
2013-03-13 01:52:00,42.6,22.2,30.14,North,355,5.0,5.0,44,0.00,,,0.00,Wunderground v.1.15,2013-03-13 07:52:00,
2013-03-13 01:57:00,42.7,22.8,30.14,North,360,1.0,7.0,45,0.00,,,0.00,Wunderground v.1.15,2013-03-13 07:57:00,
2013-03-13 02:02:00,42.8,22.9,30.15,NNE,13,4.0,4.0,45,0.00,,,0.00,Wunderground v.1.15,2013-03-13 08:02:00,
2013-03-13 02:08:00,42.9,23.5,30.15,NNW,337,4.0,5.0,46,0.00,,,0.00,Wunderground v.1.15,2013-03-13 08:08:00,
2013-03-13 02:13:00,43.0,23.6,30.16,NNW,332,3.0,4.0,46,0.00,,,0.00,Wunderground v.1.15,2013-03-13 08:13:00,
2013-03-13 02:18:00,43.0,23.6,30.16,NW,313,4.0,5.0,46,0.00,,,0.00,Wunderground v.1.15,2013-03-13 08:18:00,
2013-03-13 02:23:00,42.9,23.5,30.17,WNW,292,4.0,5.0,46,0.00,,,0.00,Wunderground v.1.15,2013-03-13 08:23:00,
2013-03-13 02:28:00,42.7,23.3,30.17,West,265,3.0,5.0,46,0.00,,,0.00,Wunderground v.1.15,2013-03-13 08:28:00,
2013-03-13 02:33:00,42.4,23.1,30.17,West,269,5.0,6.0,46,0.00,,,0.00,Wunderground v.1.15,2013-03-13 08:33:00,
2013-03-13 02:38:00,42.2,23.4,30.17,West,269,1.0,6.0,47,0.00,,,0.00,Wunderground v.1.15,2013-03-13 08:38:00,
2013-03-13 02:43:00,41.9,23.1,30.18,West,268,1.0,3.0,47,0.00,,,0.00,Wunderground v.1.15,2013-03-13 08:43:00,
2013-03-13 02:48:00,41.7,22.9,30.18,West,268,3.0,3.0,47,0.00,,,0.00,Wunderground v.1.15,2013-03-13 08:48:00,
2013-03-13 02:53:00,41.3,23.1,30.18,West,269,0.0,2.0,48,0.00,,,0.00,Wunderground v.1.15,2013-03-13 08:53:00,
2013-03-13 02:58:00,40.8,22.6,30.18,West,269,2.0,3.0,48,0.00,,,0.00,Wunderground v.1.15,2013-03-13 08:58:00,
2013-03-13 03:03:00,40.4,23.2,30.18,NW,314,6.0,6.0,50,0.00,,,0.00,Wunderground v.1.15,2013-03-13 09:03:00,
2013-03-13 03:08:00,40.6,23.4,30.18,NW,315,6.0,6.0,50,0.00,,,0.00,Wunderground v.1.15,2013-03-13 09:08:00,
2013-03-13 03:13:00,40.9,23.7,30.18,NW,315,4.0,7.0,50,0.00,,,0.00,Wunderground v.1.15,2013-03-13 09:13:00,
2013-03-13 03:18:00,41.1,23.9,30.18,NW,316,2.0,7.0,50,0.00,,,0.00,Wunderground v.1.15,2013-03-13 09:18:00,
2013-03-13 03:33:00,40.5,23.0,30.17,NW,319,1.0,5.0,51,0.00,,,0.00,weatherlink.com 1.10,2013-03-13 09:33:00,
2013-03-13 03:48:00,39.6,23.0,30.18,NW,319,3.0,4.0,52,0.00,,,0.00,weatherlink.com 1.10,2013-03-13 09:48:00,
2013-03-13 04:04:00,38.8,23.0,30.18,NW,319,0.0,3.0,53,0.00,,,0.00,weatherlink.com 1.10,2013-03-13 10:04:00,
2013-03-13 04:19:00,38.2,23.0,30.18,NW,319,1.0,3.0,55,0.00,,,0.00,weatherlink.com 1.10,2013-03-13 10:19:00,
2013-03-13 04:34:00,37.3,23.0,30.18,NW,319,1.0,4.0,57,0.00,,,0.00,weatherlink.com 1.10,2013-03-13 10:34:00,
2013-03-13 04:49:00,37.0,23.0,30.19,North,355,3.0,5.0,58,0.00,,,0.00,weatherlink.com 1.10,2013-03-13 10:49:00,
2013-03-13 05:04:00,36.6,23.0,30.19,NNE,13,2.0,5.0,58,0.00,,,0.00,weatherlink.com 1.10,2013-03-13 11:04:00,
2013-03-13 05:19:00,36.0,23.0,30.20,North,11,1.0,3.0,60,0.00,,,0.00,weatherlink.com 1.10,2013-03-13 11:19:00,
2013-03-13 05:34:00,35.3,23.0,30.20,North,11,4.0,4.0,61,0.00,,,0.00,weatherlink.com 1.10,2013-03-13 11:34:00,
2013-03-13 05:49:00,35.0,23.0,30.20,North,11,0.0,4.0,62,0.00,,,0.00,weatherlink.com 1.10,2013-03-13 11:49:00,
2013-03-13 06:04:00,34.6,23.0,30.20,North,11,2.0,4.0,63,0.00,,,0.00,weatherlink.com 1.10,2013-03-13 12:04:00,
2013-03-13 06:19:00,34.0,23.0,30.21,North,11,1.0,4.0,64,0.00,,,0.00,weatherlink.com 1.10,2013-03-13 12:19:00,
2013-03-13 06:34:00,33.7,23.0,30.21,North,11,2.0,5.0,64,0.00,,,0.00,weatherlink.com 1.10,2013-03-13 12:34:00,
2013-03-13 06:49:00,33.1,23.0,30.21,North,11,2.0,4.0,66,0.00,,,0.00,weatherlink.com 1.10,2013-03-13 12:49:00,
2013-03-13 07:04:00,32.7,23.0,30.22,North,11,0.0,2.0,67,0.00,,,0.00,weatherlink.com 1.10,2013-03-13 13:04:00,
2013-03-13 07:19:00,32.8,23.0,30.22,North,11,2.0,2.0,66,0.00,,,0.00,weatherlink.com 1.10,2013-03-13 13:19:00,
2013-03-13 07:24:00,32.6,22.1,30.23,NNE,12,2.0,4.0,65,0.00,,,0.00,Wunderground v.1.15,2013-03-13 13:24:00,
2013-03-13 07:29:00,32.5,22.4,30.23,North,11,2.0,4.0,66,0.00,,,0.00,Wunderground v.1.15,2013-03-13 13:29:00,
2013-03-13 07:34:00,32.4,22.7,30.23,NNE,12,2.0,4.0,67,0.00,,,0.00,Wunderground v.1.15,2013-03-13 13:34:00,
2013-03-13 07:39:00,32.4,22.7,30.24,North,11,3.0,4.0,67,0.00,,,0.00,Wunderground v.1.15,2013-03-13 13:39:00,
2013-03-13 07:44:00,32.5,22.8,30.24,North,11,4.0,4.0,67,0.00,,,0.00,Wunderground v.1.15,2013-03-13 13:44:00,
2013-03-13 07:49:00,32.7,22.9,30.24,North,10,5.0,5.0,67,0.00,,,0.00,Wunderground v.1.15,2013-03-13 13:49:00,
2013-03-13 07:54:00,33.2,23.4,30.24,North,10,2.0,5.0,67,0.00,,,0.00,Wunderground v.1.15,2013-03-13 13:54:00,
2013-03-13 07:59:00,33.5,23.4,30.24,North,10,1.0,5.0,66,0.00,,,0.00,Wunderground v.1.15,2013-03-13 13:59:00,
2013-03-13 08:04:00,33.9,23.7,30.24,North,11,1.0,3.0,66,0.00,,,0.00,Wunderground v.1.15,2013-03-13 14:04:00,
2013-03-13 08:09:00,34.3,23.7,30.25,North,9,4.0,7.0,65,0.00,,,0.00,Wunderground v.1.15,2013-03-13 14:09:00,
2013-03-13 08:14:00,35.0,24.0,30.25,North,355,5.0,7.0,64,0.00,,,0.00,Wunderground v.1.15,2013-03-13 14:14:00,
2013-03-13 08:19:00,35.6,24.2,30.26,North,350,6.0,7.0,63,0.00,,,0.00,Wunderground v.1.15,2013-03-13 14:19:00,
2013-03-13 08:24:00,36.3,24.5,30.26,North,355,4.0,8.0,62,0.00,,,0.00,Wunderground v.1.15,2013-03-13 14:24:00,
2013-03-13 08:29:00,37.0,24.4,30.26,North,351,3.0,8.0,60,0.00,,,0.00,Wunderground v.1.15,2013-03-13 14:29:00,
2013-03-13 08:34:00,37.5,24.5,30.26,North,350,4.0,6.0,59,0.00,,,0.00,Wunderground v.1.15,2013-03-13 14:34:00,
2013-03-13 08:40:00,38.0,24.5,30.27,NNW,348,3.0,6.0,58,0.00,,,0.00,Wunderground v.1.15,2013-03-13 14:40:00,
2013-03-13 08:45:00,38.6,24.0,30.27,NNW,348,4.0,5.0,57,0.00,,,0.00,weatherlink.com 1.10,2013-03-13 14:45:00,
2013-03-13 08:51:00,39.2,24.8,30.27,NNW,343,3.0,3.0,56,0.00,,,0.00,Wunderground v.1.15,2013-03-13 14:51:00,
2013-03-13 08:57:00,39.8,24.9,30.27,NNW,342,3.0,5.0,55,0.00,,,0.00,Wunderground v.1.15,2013-03-13 14:57:00,
2013-03-13 09:02:00,40.5,25.1,30.27,NNW,342,5.0,5.0,54,0.00,,,0.00,Wunderground v.1.15,2013-03-13 15:02:00,
2013-03-13 09:08:00,41.4,25.5,30.27,NNW,342,4.0,5.0,53,0.00,,,0.00,Wunderground v.1.15,2013-03-13 15:08:00,
2013-03-13 09:14:00,42.3,25.0,30.27,NNW,341,4.0,4.0,50,0.00,,,0.00,Wunderground v.1.15,2013-03-13 15:14:00,
2013-03-13 09:19:00,43.0,25.1,30.27,NNW,341,3.0,4.0,49,0.00,,,0.00,Wunderground v.1.15,2013-03-13 15:19:00,
2013-03-13 09:24:00,43.6,25.2,30.27,NNW,341,3.0,5.0,48,0.00,,,0.00,Wunderground v.1.15,2013-03-13 15:24:00,
2013-03-13 09:29:00,44.3,25.8,30.27,NNW,340,2.0,5.0,48,0.00,,,0.00,Wunderground v.1.15,2013-03-13 15:29:00,
2013-03-13 09:34:00,44.9,25.3,30.27,NNW,341,3.0,4.0,46,0.00,,,0.00,Wunderground v.1.15,2013-03-13 15:34:00,
2013-03-13 09:39:00,45.5,25.4,30.27,NNW,331,2.0,4.0,45,0.00,,,0.00,Wunderground v.1.15,2013-03-13 15:39:00,
2013-03-13 09:44:00,46.1,25.9,30.27,NNW,331,2.0,3.0,45,0.00,,,0.00,Wunderground v.1.15,2013-03-13 15:44:00,
2013-03-13 09:49:00,46.8,25.5,30.27,NNW,331,3.0,5.0,43,0.00,,,0.00,Wunderground v.1.15,2013-03-13 15:49:00,
2013-03-13 09:54:00,47.5,26.1,30.27,NNW,331,2.0,3.0,43,0.00,,,0.00,Wunderground v.1.15,2013-03-13 15:54:00,
2013-03-13 09:59:00,48.1,25.5,30.27,NNW,332,2.0,4.0,41,0.00,,,0.00,Wunderground v.1.15,2013-03-13 15:59:00,
2013-03-13 10:04:00,48.7,26.0,30.27,NNW,331,1.0,5.0,41,0.00,,,0.00,Wunderground v.1.15,2013-03-13 16:04:00,
2013-03-13 10:09:00,49.6,26.2,30.27,NNW,331,1.0,5.0,40,0.00,,,0.00,Wunderground v.1.15,2013-03-13 16:09:00,
2013-03-13 10:14:00,50.8,26.1,30.27,NNW,331,2.0,3.0,38,0.00,,,0.00,Wunderground v.1.15,2013-03-13 16:14:00,
2013-03-13 10:19:00,51.5,26.1,30.27,NNW,331,1.0,3.0,37,0.00,,,0.00,Wunderground v.1.15,2013-03-13 16:19:00,
2013-03-13 10:24:00,51.7,26.2,30.27,NNW,331,1.0,2.0,37,0.00,,,0.00,Wunderground v.1.15,2013-03-13 16:24:00,
2013-03-13 10:29:00,52.4,26.2,30.27,NNW,331,1.0,2.0,36,0.00,,,0.00,Wunderground v.1.15,2013-03-13 16:29:00,
2013-03-13 10:34:00,53.0,26.0,30.27,NNW,331,1.0,1.0,35,0.00,,,0.00,Wunderground v.1.15,2013-03-13 16:34:00,
2013-03-13 10:39:00,53.1,26.1,30.27,NNW,331,0.0,2.0,35,0.00,,,0.00,Wunderground v.1.15,2013-03-13 16:39:00,
2013-03-13 10:44:00,53.2,25.5,30.27,NNW,331,1.0,3.0,34,0.00,,,0.00,Wunderground v.1.15,2013-03-13 16:44:00,
2013-03-13 10:49:00,53.6,25.9,30.27,NNW,331,0.0,3.0,34,0.00,,,0.00,Wunderground v.1.15,2013-03-13 16:49:00,
2013-03-13 10:54:00,54.3,26.5,30.27,NNW,331,1.0,2.0,34,0.00,,,0.00,Wunderground v.1.15,2013-03-13 16:54:00,
2013-03-13 10:59:00,55.5,25.3,30.27,SE,132,2.0,4.0,31,0.00,,,0.00,Wunderground v.1.15,2013-03-13 16:59:00,
2013-03-13 11:04:00,56.2,24.3,30.27,SE,129,1.0,4.0,29,0.00,,,0.00,Wunderground v.1.15,2013-03-13 17:04:00,
2013-03-13 11:09:00,56.8,24.0,30.26,South,187,0.0,4.0,28,0.00,,,0.00,Wunderground v.1.15,2013-03-13 17:09:00,
2013-03-13 11:14:00,57.5,23.7,30.26,South,173,3.0,7.0,27,0.00,,,0.00,Wunderground v.1.15,2013-03-13 17:14:00,
2013-03-13 11:19:00,57.5,22.8,30.26,South,185,3.0,7.0,26,0.00,,,0.00,Wunderground v.1.15,2013-03-13 17:19:00,
2013-03-13 11:24:00,57.8,23.1,30.26,SSW,199,6.0,7.0,26,0.00,,,0.00,Wunderground v.1.15,2013-03-13 17:24:00,
2013-03-13 11:29:00,58.2,23.4,30.26,SSW,195,5.0,7.0,26,0.00,,,0.00,Wunderground v.1.15,2013-03-13 17:29:00,
2013-03-13 11:34:00,58.6,22.8,30.25,South,186,3.0,7.0,25,0.00,,,0.00,Wunderground v.1.15,2013-03-13 17:34:00,
2013-03-13 11:39:00,58.7,22.9,30.25,South,185,2.0,7.0,25,0.00,,,0.00,Wunderground v.1.15,2013-03-13 17:39:00,
2013-03-13 11:45:00,59.0,23.2,30.25,SSW,200,4.0,5.0,25,0.00,,,0.00,Wunderground v.1.15,2013-03-13 17:45:00,
2013-03-13 11:50:00,59.4,24.5,30.25,SSW,198,5.0,7.0,26,0.00,,,0.00,Wunderground v.1.15,2013-03-13 17:50:00,
2013-03-13 11:55:00,59.9,23.9,30.24,SSW,204,2.0,8.0,25,0.00,,,0.00,Wunderground v.1.15,2013-03-13 17:55:00,
2013-03-13 12:00:00,60.2,23.2,30.24,SSW,209,5.0,8.0,24,0.00,,,0.00,Wunderground v.1.15,2013-03-13 18:00:00,
2013-03-13 12:05:00,60.5,24.5,30.24,SSW,198,5.0,7.0,25,0.00,,,0.00,Wunderground v.1.15,2013-03-13 18:05:00,
2013-03-13 12:10:00,61.3,25.1,30.24,SSW,198,3.0,3.0,25,0.00,,,0.00,Wunderground v.1.15,2013-03-13 18:10:00,
2013-03-13 12:15:00,62.0,24.8,30.23,South,169,3.0,7.0,24,0.00,,,0.00,Wunderground v.1.15,2013-03-13 18:15:00,
2013-03-13 12:20:00,62.5,25.2,30.23,ESE,111,3.0,7.0,24,0.00,,,0.00,Wunderground v.1.15,2013-03-13 18:20:00,
2013-03-13 12:25:00,62.5,25.2,30.22,ENE,75,0.0,6.0,24,0.00,,,0.00,Wunderground v.1.15,2013-03-13 18:25:00,
2013-03-13 12:31:00,62.3,25.0,30.22,NE,44,0.0,3.0,24,0.00,,,0.00,Wunderground v.1.15,2013-03-13 18:31:00,
2013-03-13 12:36:00,63.2,25.8,30.22,NW,325,2.0,3.0,24,0.00,,,0.00,Wunderground v.1.15,2013-03-13 18:36:00,
2013-03-13 12:41:00,63.8,25.3,30.22,NW,321,4.0,4.0,23,0.00,,,0.00,Wunderground v.1.15,2013-03-13 18:41:00,
2013-03-13 12:46:00,64.2,24.5,30.21,SSW,207,6.0,6.0,22,0.00,,,0.00,Wunderground v.1.15,2013-03-13 18:46:00,
2013-03-13 12:52:00,64.6,25.9,30.21,SSW,195,3.0,4.0,23,0.00,,,0.00,Wunderground v.1.15,2013-03-13 18:52:00,
2013-03-13 12:57:00,64.6,24.9,30.21,SSW,197,2.0,6.0,22,0.00,,,0.00,Wunderground v.1.15,2013-03-13 18:57:00,
2013-03-13 13:02:00,64.4,24.7,30.20,SSE,157,3.0,4.0,22,0.00,,,0.00,Wunderground v.1.15,2013-03-13 19:02:00,
2013-03-13 13:07:00,64.6,24.9,30.20,SE,146,4.0,5.0,22,0.00,,,0.00,Wunderground v.1.15,2013-03-13 19:07:00,
2013-03-13 13:12:00,64.3,24.6,30.20,SE,146,2.0,3.0,22,0.00,,,0.00,Wunderground v.1.15,2013-03-13 19:12:00,
2013-03-13 13:17:00,64.7,24.9,30.20,ESE,115,1.0,3.0,22,0.00,,,0.00,Wunderground v.1.15,2013-03-13 19:17:00,
2013-03-13 13:22:00,65.0,25.2,30.19,WNW,301,5.0,6.0,22,0.00,,,0.00,Wunderground v.1.15,2013-03-13 19:22:00,
2013-03-13 13:27:00,65.4,24.4,30.19,West,261,5.0,7.0,21,0.00,,,0.00,Wunderground v.1.15,2013-03-13 19:27:00,
2013-03-13 13:32:00,65.4,24.4,30.19,WSW,247,2.0,4.0,21,0.00,,,0.00,Wunderground v.1.15,2013-03-13 19:32:00,
2013-03-13 13:37:00,65.4,24.4,30.18,WSW,247,1.0,4.0,21,0.00,,,0.00,Wunderground v.1.15,2013-03-13 19:37:00,
2013-03-13 13:42:00,65.8,24.7,30.18,WSW,238,1.0,3.0,21,0.00,,,0.00,Wunderground v.1.15,2013-03-13 19:42:00,
2013-03-13 13:47:00,66.0,24.9,30.17,NW,312,2.0,3.0,21,0.00,,,0.00,Wunderground v.1.15,2013-03-13 19:47:00,
2013-03-13 13:52:00,66.1,23.8,30.17,SSE,153,3.0,5.0,20,0.00,,,0.00,Wunderground v.1.15,2013-03-13 19:52:00,
2013-03-13 13:58:00,66.3,24.0,30.17,East,82,6.0,8.0,20,0.00,,,0.00,Wunderground v.1.15,2013-03-13 19:58:00,
2013-03-13 14:03:00,66.4,24.1,30.16,South,176,1.0,4.0,20,0.00,,,0.00,Wunderground v.1.15,2013-03-13 20:03:00,
2013-03-13 14:08:00,66.7,24.3,30.16,SSW,200,2.0,7.0,20,0.00,,,0.00,Wunderground v.1.15,2013-03-13 20:08:00,
2013-03-13 14:13:00,66.8,24.4,30.15,SSE,154,6.0,8.0,20,0.00,,,0.00,Wunderground v.1.15,2013-03-13 20:13:00,
2013-03-13 14:18:00,66.5,24.2,30.15,East,94,2.0,8.0,20,0.00,,,0.00,Wunderground v.1.15,2013-03-13 20:18:00,
2013-03-13 14:23:00,66.9,24.5,30.15,SSW,213,6.0,9.0,20,0.00,,,0.00,Wunderground v.1.15,2013-03-13 20:23:00,
2013-03-13 14:28:00,67.4,24.9,30.14,South,187,4.0,9.0,20,0.00,,,0.00,Wunderground v.1.15,2013-03-13 20:28:00,
2013-03-13 14:33:00,67.2,24.7,30.14,SSE,164,4.0,6.0,20,0.00,,,0.00,Wunderground v.1.15,2013-03-13 20:33:00,
2013-03-13 14:38:00,67.6,23.8,30.14,SW,227,4.0,9.0,19,0.00,,,0.00,Wunderground v.1.15,2013-03-13 20:38:00,
2013-03-13 14:43:00,67.8,24.0,30.14,WSW,242,2.0,6.0,19,0.00,,,0.00,Wunderground v.1.15,2013-03-13 20:43:00,
2013-03-13 14:48:00,68.0,24.2,30.13,WSW,246,0.0,6.0,19,0.00,,,0.00,Wunderground v.1.15,2013-03-13 20:48:00,
2013-03-13 14:53:00,68.4,24.5,30.13,SSW,209,6.0,10.0,19,0.00,,,0.00,Wunderground v.1.15,2013-03-13 20:53:00,
2013-03-13 14:58:00,68.6,23.4,30.13,SSE,151,10.0,10.0,18,0.00,,,0.00,Wunderground v.1.15,2013-03-13 20:58:00,
2013-03-13 15:03:00,68.1,24.2,30.12,SSW,202,3.0,11.0,19,0.00,,,0.00,Wunderground v.1.15,2013-03-13 21:03:00,
2013-03-13 15:08:00,68.6,23.4,30.12,South,171,3.0,11.0,18,0.00,,,0.00,Wunderground v.1.15,2013-03-13 21:08:00,
2013-03-13 15:13:00,68.8,23.5,30.13,WSW,253,0.0,7.0,18,0.00,,,0.00,Wunderground v.1.15,2013-03-13 21:13:00,
2013-03-13 15:18:00,69.3,23.9,30.12,WNW,300,3.0,7.0,18,0.00,,,0.00,Wunderground v.1.15,2013-03-13 21:18:00,
2013-03-13 15:23:00,69.5,24.1,30.12,South,169,4.0,9.0,18,0.00,,,0.00,Wunderground v.1.15,2013-03-13 21:23:00,
2013-03-13 15:28:00,69.6,24.2,30.12,SSW,197,1.0,9.0,18,0.00,,,0.00,Wunderground v.1.15,2013-03-13 21:28:00,
2013-03-13 15:33:00,69.8,24.3,30.12,South,185,3.0,3.0,18,0.00,,,0.00,Wunderground v.1.15,2013-03-13 21:33:00,
2013-03-13 15:38:00,69.9,23.1,30.12,NNW,329,4.0,7.0,17,0.00,,,0.00,Wunderground v.1.15,2013-03-13 21:38:00,
2013-03-13 15:43:00,69.7,22.9,30.12,NW,326,2.0,3.0,17,0.00,,,0.00,Wunderground v.1.15,2013-03-13 21:43:00,
2013-03-13 15:48:00,69.7,22.9,30.12,ESE,115,3.0,10.0,17,0.00,,,0.00,Wunderground v.1.15,2013-03-13 21:48:00,
2013-03-13 15:53:00,70.2,21.9,30.12,NNW,327,5.0,9.0,16,0.00,,,0.00,Wunderground v.1.15,2013-03-13 21:53:00,
2013-03-13 15:58:00,70.7,20.7,30.12,West,267,2.0,9.0,15,0.00,,,0.00,Wunderground v.1.15,2013-03-13 21:58:00,
2013-03-13 16:03:00,71.2,21.1,30.12,WNW,292,6.0,13.0,15,0.00,,,0.00,Wunderground v.1.15,2013-03-13 22:03:00,
2013-03-13 16:08:00,71.4,21.3,30.12,WNW,299,10.0,13.0,15,0.00,,,0.00,Wunderground v.1.15,2013-03-13 22:08:00,
2013-03-13 16:13:00,71.3,21.2,30.11,NW,323,8.0,10.0,15,0.00,,,0.00,Wunderground v.1.15,2013-03-13 22:13:00,
2013-03-13 16:18:00,70.8,20.8,30.11,NNW,333,4.0,10.0,15,0.00,,,0.00,Wunderground v.1.15,2013-03-13 22:18:00,
2013-03-13 16:23:00,70.6,20.7,30.11,NNW,348,1.0,5.0,15,0.00,,,0.00,Wunderground v.1.15,2013-03-13 22:23:00,
2013-03-13 16:28:00,71.3,21.2,30.11,West,261,3.0,8.0,15,0.00,,,0.00,Wunderground v.1.15,2013-03-13 22:28:00,
2013-03-13 16:33:00,71.7,21.5,30.11,WSW,255,6.0,14.0,15,0.00,,,0.00,Wunderground v.1.15,2013-03-13 22:33:00,
2013-03-13 16:38:00,71.7,21.5,30.10,WNW,282,6.0,14.0,15,0.00,,,0.00,Wunderground v.1.15,2013-03-13 22:38:00,
2013-03-13 16:44:00,71.6,21.5,30.10,NW,306,6.0,10.0,15,0.00,,,0.00,Wunderground v.1.15,2013-03-13 22:44:00,
2013-03-13 16:49:00,71.7,21.5,30.10,WNW,284,7.0,10.0,15,0.00,,,0.00,Wunderground v.1.15,2013-03-13 22:49:00,
2013-03-13 16:54:00,71.5,21.4,30.10,West,278,1.0,7.0,15,0.00,,,0.00,Wunderground v.1.15,2013-03-13 22:54:00,
2013-03-13 16:59:00,71.5,21.4,30.10,West,269,7.0,10.0,15,0.00,,,0.00,Wunderground v.1.15,2013-03-13 22:59:00,
2013-03-13 17:04:00,71.7,21.5,30.09,WNW,298,6.0,10.0,15,0.00,,,0.00,Wunderground v.1.15,2013-03-13 23:04:00,
2013-03-13 17:09:00,72.1,20.2,30.09,WSW,254,3.0,10.0,14,0.00,,,0.00,Wunderground v.1.15,2013-03-13 23:09:00,
2013-03-13 17:14:00,72.6,22.3,30.09,West,273,10.0,11.0,15,0.00,,,0.00,Wunderground v.1.15,2013-03-13 23:14:00,
2013-03-13 17:19:00,72.7,20.7,30.09,WSW,253,5.0,13.0,14,0.00,,,0.00,Wunderground v.1.15,2013-03-13 23:19:00,
2013-03-13 17:24:00,72.7,20.7,30.09,WSW,254,2.0,9.0,14,0.00,,,0.00,Wunderground v.1.15,2013-03-13 23:24:00,
2013-03-13 17:29:00,72.8,20.8,30.09,WNW,302,3.0,9.0,14,0.00,,,0.00,Wunderground v.1.15,2013-03-13 23:29:00,
2013-03-13 17:34:00,72.7,20.7,30.08,SW,225,6.0,8.0,14,0.00,,,0.00,Wunderground v.1.15,2013-03-13 23:34:00,
2013-03-13 17:39:00,72.8,20.8,30.08,West,277,4.0,8.0,14,0.00,,,0.00,Wunderground v.1.15,2013-03-13 23:39:00,
2013-03-13 17:44:00,72.6,20.6,30.08,WSW,248,6.0,6.0,14,0.00,,,0.00,Wunderground v.1.15,2013-03-13 23:44:00,
2013-03-13 17:49:00,72.4,20.5,30.08,WSW,238,0.0,7.0,14,0.00,,,0.00,Wunderground v.1.15,2013-03-13 23:49:00,
2013-03-13 17:54:00,71.8,20.0,30.08,WSW,237,0.0,4.0,14,0.00,,,0.00,Wunderground v.1.15,2013-03-13 23:54:00,
2013-03-13 17:59:00,71.5,19.8,30.08,NW,323,3.0,5.0,14,0.00,,,0.00,Wunderground v.1.15,2013-03-13 23:59:00,
2013-03-13 18:04:00,71.4,19.7,30.08,NNW,336,3.0,4.0,14,0.00,,,0.00,Wunderground v.1.15,2013-03-14 00:04:00,
2013-03-13 18:09:00,71.4,19.7,30.08,NNW,337,0.0,4.0,14,0.00,,,0.00,Wunderground v.1.15,2013-03-14 00:09:00,
2013-03-13 18:14:00,71.8,20.0,30.07,NW,313,2.0,5.0,14,0.00,,,0.00,Wunderground v.1.15,2013-03-14 00:14:00,
2013-03-13 18:19:00,72.0,18.4,30.08,NNW,329,3.0,5.0,13,0.00,,,0.00,Wunderground v.1.15,2013-03-14 00:19:00,
2013-03-13 18:24:00,71.6,18.1,30.08,NNW,341,6.0,8.0,13,0.00,,,0.00,Wunderground v.1.15,2013-03-14 00:24:00,
2013-03-13 18:29:00,70.6,19.0,30.08,NW,309,8.0,11.0,14,0.00,,,0.00,Wunderground v.1.15,2013-03-14 00:29:00,
2013-03-13 18:34:00,69.9,18.5,30.08,NNW,327,9.0,13.0,14,0.00,,,0.00,Wunderground v.1.15,2013-03-14 00:34:00,
2013-03-13 18:39:00,69.4,18.1,30.08,NW,311,10.0,14.0,14,0.00,,,0.00,Wunderground v.1.15,2013-03-14 00:39:00,
2013-03-13 18:44:00,69.0,17.8,30.08,NW,321,5.0,10.0,14,0.00,,,0.00,Wunderground v.1.15,2013-03-14 00:44:00,
2013-03-13 18:49:00,68.7,17.5,30.08,NW,323,7.0,10.0,14,0.00,,,0.00,Wunderground v.1.15,2013-03-14 00:49:00,
2013-03-13 18:54:00,68.3,17.2,30.08,NNW,329,7.0,9.0,14,0.00,,,0.00,Wunderground v.1.15,2013-03-14 00:54:00,
2013-03-13 18:59:00,68.0,18.6,30.08,North,349,8.0,9.0,15,0.00,,,0.00,Wunderground v.1.15,2013-03-14 00:59:00,
2013-03-13 19:04:00,67.6,18.3,30.08,NW,320,6.0,8.0,15,0.00,,,0.00,Wunderground v.1.15,2013-03-14 01:04:00,
2013-03-13 19:09:00,67.1,17.8,30.09,NNW,333,9.0,13.0,15,0.00,,,0.00,Wunderground v.1.15,2013-03-14 01:09:00,
2013-03-13 19:14:00,66.7,17.5,30.09,North,351,8.0,12.0,15,0.00,,,0.00,Wunderground v.1.15,2013-03-14 01:14:00,
2013-03-13 19:19:00,66.3,17.2,30.09,NNW,340,5.0,12.0,15,0.00,,,0.00,Wunderground v.1.15,2013-03-14 01:19:00,
2013-03-13 19:24:00,65.9,18.4,30.09,North,360,6.0,12.0,16,0.00,,,0.00,Wunderground v.1.15,2013-03-14 01:24:00,
2013-03-13 19:29:00,65.6,18.1,30.09,NNW,346,9.0,12.0,16,0.00,,,0.00,Wunderground v.1.15,2013-03-14 01:29:00,
2013-03-13 19:34:00,65.2,17.8,30.09,NNW,335,4.0,7.0,16,0.00,,,0.00,Wunderground v.1.15,2013-03-14 01:34:00,
2013-03-13 19:40:00,64.9,17.6,30.09,NNW,337,10.0,10.0,16,0.00,,,0.00,Wunderground v.1.15,2013-03-14 01:40:00,
2013-03-13 19:45:00,64.7,17.4,30.09,NNW,347,7.0,9.0,16,0.00,,,0.00,Wunderground v.1.15,2013-03-14 01:45:00,
2013-03-13 19:50:00,64.4,17.2,30.09,NNW,333,4.0,9.0,16,0.00,,,0.00,Wunderground v.1.15,2013-03-14 01:50:00,
2013-03-13 19:55:00,64.0,16.8,30.10,NNW,331,4.0,7.0,16,0.00,,,0.00,Wunderground v.1.15,2013-03-14 01:55:00,
2013-03-13 20:00:00,63.8,16.7,30.09,NNW,342,6.0,7.0,16,0.00,,,0.00,Wunderground v.1.15,2013-03-14 02:00:00,
2013-03-13 20:05:00,63.5,16.4,30.10,NNW,332,6.0,7.0,16,0.00,,,0.00,Wunderground v.1.15,2013-03-14 02:05:00,
2013-03-13 20:10:00,63.2,16.2,30.10,NNW,327,5.0,5.0,16,0.00,,,0.00,Wunderground v.1.15,2013-03-14 02:10:00,
2013-03-13 20:16:00,62.9,17.4,30.10,North,9,5.0,8.0,17,0.00,,,0.00,Wunderground v.1.15,2013-03-14 02:16:00,
2013-03-13 20:21:00,62.8,17.3,30.10,NNW,327,6.0,7.0,17,0.00,,,0.00,Wunderground v.1.15,2013-03-14 02:21:00,
2013-03-13 20:26:00,62.5,17.0,30.10,NNW,339,4.0,7.0,17,0.00,,,0.00,Wunderground v.1.15,2013-03-14 02:26:00,
2013-03-13 20:32:00,62.2,16.8,30.11,NNW,337,6.0,6.0,17,0.00,,,0.00,Wunderground v.1.15,2013-03-14 02:32:00,
2013-03-13 20:37:00,61.8,16.5,30.11,NNW,341,3.0,8.0,17,0.00,,,0.00,Wunderground v.1.15,2013-03-14 02:37:00,
2013-03-13 20:42:00,61.5,16.2,30.11,NNW,348,4.0,6.0,17,0.00,,,0.00,Wunderground v.1.15,2013-03-14 02:42:00,
2013-03-13 20:47:00,61.1,17.2,30.11,NNW,340,2.0,6.0,18,0.00,,,0.00,Wunderground v.1.15,2013-03-14 02:47:00,
2013-03-13 20:52:00,60.6,16.8,30.11,NNW,329,3.0,5.0,18,0.00,,,0.00,Wunderground v.1.15,2013-03-14 02:52:00,
2013-03-13 20:57:00,60.3,17.8,30.11,NNW,329,0.0,5.0,19,0.00,,,0.00,Wunderground v.1.15,2013-03-14 02:57:00,
2013-03-13 21:02:00,59.5,17.1,30.11,NNW,329,1.0,2.0,19,0.00,,,0.00,Wunderground v.1.15,2013-03-14 03:02:00,
2013-03-13 21:07:00,58.9,18.0,30.12,NNW,329,0.0,2.0,20,0.00,,,0.00,weatherlink.com 1.10,2013-03-14 03:07:00,
2013-03-13 21:12:00,58.0,18.2,30.12,NNW,329,0.0,0.0,21,0.00,,,0.00,Wunderground v.1.15,2013-03-14 03:12:00,
2013-03-13 21:18:00,57.3,17.6,30.13,NNW,329,0.0,1.0,21,0.00,,,0.00,Wunderground v.1.15,2013-03-14 03:18:00,
2013-03-13 21:23:00,56.6,17.1,30.13,NNW,329,1.0,3.0,21,0.00,,,0.00,Wunderground v.1.15,2013-03-14 03:23:00,
2013-03-13 21:28:00,55.9,17.6,30.13,NNW,329,0.0,3.0,22,0.00,,,0.00,Wunderground v.1.15,2013-03-14 03:28:00,
2013-03-13 21:33:00,55.3,17.0,30.13,NNW,329,0.0,1.0,22,0.00,,,0.00,Wunderground v.1.15,2013-03-14 03:33:00,
2013-03-13 21:38:00,54.8,17.7,30.13,NNW,329,0.0,1.0,23,0.00,,,0.00,Wunderground v.1.15,2013-03-14 03:38:00,
2013-03-13 21:43:00,54.2,17.1,30.13,NNW,329,1.0,2.0,23,0.00,,,0.00,Wunderground v.1.15,2013-03-14 03:43:00,
2013-03-13 21:48:00,53.7,17.7,30.14,NNW,329,0.0,2.0,24,0.00,,,0.00,Wunderground v.1.15,2013-03-14 03:48:00,
2013-03-13 21:53:00,53.2,18.2,30.14,NNW,329,0.0,0.0,25,0.00,,,0.00,Wunderground v.1.15,2013-03-14 03:53:00,
2013-03-13 21:58:00,52.8,17.9,30.14,NNW,329,0.0,1.0,25,0.00,,,0.00,Wunderground v.1.15,2013-03-14 03:58:00,
2013-03-13 22:00:00,52.8,17.9,30.14,NNW,329,0.0,1.0,25,0.00,,,0.00,Wunderground v.1.15,2013-03-14 04:00:00,
2013-03-13 22:01:00,52.7,17.8,30.14,NNW,329,0.0,0.0,25,0.00,,,0.00,Wunderground v.1.15,2013-03-14 04:01:00,
2013-03-13 22:06:00,52.3,17.5,30.14,NNW,329,0.0,0.0,25,0.00,,,0.00,Wunderground v.1.15,2013-03-14 04:06:00,
2013-03-13 22:11:00,51.8,18.0,30.14,NNW,329,0.0,0.0,26,0.00,,,0.00,Wunderground v.1.15,2013-03-14 04:11:00,
2013-03-13 22:16:00,51.2,17.4,30.14,NNW,329,2.0,2.0,26,0.00,,,0.00,Wunderground v.1.15,2013-03-14 04:16:00,
2013-03-13 22:21:00,50.7,17.0,30.14,NNW,329,2.0,4.0,26,0.00,,,0.00,Wunderground v.1.15,2013-03-14 04:21:00,
2013-03-13 22:26:00,50.2,17.5,30.15,NNW,329,0.0,4.0,27,0.00,,,0.00,Wunderground v.1.15,2013-03-14 04:26:00,
2013-03-13 22:32:00,49.6,17.8,30.15,NNW,329,1.0,1.0,28,0.00,,,0.00,Wunderground v.1.15,2013-03-14 04:32:00,
2013-03-13 22:37:00,49.2,17.4,30.15,NNW,329,1.0,2.0,28,0.00,,,0.00,Wunderground v.1.15,2013-03-14 04:37:00,
2013-03-13 22:42:00,48.9,18.0,30.15,NNW,329,1.0,2.0,29,0.00,,,0.00,Wunderground v.1.15,2013-03-14 04:42:00,
2013-03-13 22:47:00,48.8,17.9,30.15,NNW,329,2.0,2.0,29,0.00,,,0.00,Wunderground v.1.15,2013-03-14 04:47:00,
2013-03-13 22:52:00,48.4,17.6,30.15,NNW,329,2.0,3.0,29,0.00,,,0.00,Wunderground v.1.15,2013-03-14 04:52:00,
2013-03-13 22:57:00,48.0,18.0,30.15,NNW,330,2.0,3.0,30,0.00,,,0.00,Wunderground v.1.15,2013-03-14 04:57:00,
2013-03-13 23:02:00,47.5,17.6,30.15,NNW,329,3.0,3.0,30,0.00,,,0.00,Wunderground v.1.15,2013-03-14 05:02:00,
2013-03-13 23:07:00,47.0,17.1,30.15,NNW,329,2.0,3.0,30,0.00,,,0.00,Wunderground v.1.15,2013-03-14 05:07:00,
2013-03-13 23:12:00,46.5,17.4,30.16,NNW,330,3.0,3.0,31,0.00,,,0.00,Wunderground v.1.15,2013-03-14 05:12:00,
2013-03-13 23:17:00,46.1,17.1,30.16,NNW,329,3.0,4.0,31,0.00,,,0.00,Wunderground v.1.15,2013-03-14 05:17:00,
2013-03-13 23:22:00,46.0,17.7,30.16,NNW,329,2.0,3.0,32,0.00,,,0.00,Wunderground v.1.15,2013-03-14 05:22:00,
2013-03-13 23:27:00,46.0,17.0,30.16,NNW,329,2.0,3.0,31,0.00,,,0.00,Wunderground v.1.15,2013-03-14 05:27:00,
2013-03-13 23:33:00,45.9,17.7,30.16,NNW,329,1.0,3.0,32,0.00,,,0.00,Wunderground v.1.15,2013-03-14 05:33:00,
2013-03-13 23:38:00,45.6,17.4,30.16,NNW,329,1.0,3.0,32,0.00,,,0.00,Wunderground v.1.15,2013-03-14 05:38:00,
2013-03-13 23:43:00,45.3,17.1,30.16,NNW,329,1.0,3.0,32,0.00,,,0.00,Wunderground v.1.15,2013-03-14 05:43:00,
2013-03-13 23:48:00,45.2,17.8,30.16,NNW,329,0.0,3.0,33,0.00,,,0.00,Wunderground v.1.15,2013-03-14 05:48:00,
2013-03-13 23:53:00,45.3,17.1,30.16,NNW,329,2.0,4.0,32,0.00,,,0.00,Wunderground v.1.15,2013-03-14 05:53:00,
2013-03-13 23:58:00,45.3,17.1,30.16,NNW,329,0.0,4.0,32,0.00,,,0.00,Wunderground v.1.15,2013-03-14 05:58:00,